Location: Davidschlag
(48.4333°N, 14.2833°E)
Time: 09:32:55
(UTC+00:00)

USA 229 - Pass Details

Date: 27 February 2020
Orbit: 986 x 1226 km, 63.4° (Epoch: 26 March)

Event Time Altitude Azimuth Distance (km) Brightness Sun altitude
Rises 17:17:06 0° 235° (SW) 3,718 7.7 -6.5°
Reaches altitude 10° 17:19:41 10° 239° (WSW) 2,791 7.1 -6.9°
Maximum altitude 17:26:10 59° 319° (NW) 1,204 4.2 -8.0°
Drops below altitude 10° 17:33:02 10° 38° (NE) 2,954 5.6 -9.1°
Sets 17:35:51 0° 43° (NE) 3,951 6.3 -9.6°
